Torna al catalogo

NOAA 16 DEB

AttivoSSO
NORAD 42355·DEBRIS·🇺🇸 United States

Lanciato Sep 21, 2000 da Vandenberg Space Force Base

Loading…

Prossimi Passaggi (prossime 24 ore)

TLE

AggiornatoSource: Space-Track

Epoca: Sep 14, 2026, 06:48 UTC

1 42355U 00055QX  26257.28347087  .00001600  00000-0  82638-3 0  9997
2 42355  98.6819 280.6509 0033910 347.1706  12.8603 14.16143408543213

Traccia NOAA 16 DEB in tempo reale con AllMySat

Download on the App Store